Weather History for Whiteville, NC

Change the Weather History Date:

Wednesday, April 17, 2013

  Actual Average (KLBT) Record (KLBT)
Temperature  
Mean Temperature 68 °F 62 °F  
Max Temperature 81 °F 75 °F 91 °F (2006)
Min Temperature 54 °F 49 °F 33 °F (2005)
Degree Days  
Heating Degree Days 0 5  
Month to date heating degree days 106  
Since 1 July heating degree days 2682  
Cooling Degree Days 2 2  
Month to date cooling degree days 26  
Year to date cooling degree days 39  
Growing Degree Days 18 (Base 50)    
Moisture  
Dew Point 59 °F    
Average Humidity 78    
Maximum Humidity 99    
Minimum Humidity 45    
Precipitation  
Precipitation 0.00 in 0.08 in 0.82 in (2000)
Month to date precipitation 1.67  
Year to date precipitation 10.87  
Sea Level Pressure  
Sea Level Pressure 30.20 in    
Wind  
Wind Speed 1 mph (SSE)    
Max Wind Speed 12 mph    
Max Gust Speed 16 mph    
Visibility 9 miles    
Events      
T = Trace of Precipitation, MM = Missing Value Source: NWS Daily Summary

Daily Weather History Graph

Daily Weather History Graph

Search for Another Location

Airport:

Trip Planner

Search our weather history database for the weather conditions in past years. The results will help you decide how hot, cold, wet, or windy it might be!

Date:

Astronomy

Apr. 17, 2013 Rise Set
Actual Time 6:40 AM EDT 7:48 PM EDT
Civil Twilight 6:14 AM EDT 8:14 PM EDT
Nautical Twilight 5:44 AM EDT 8:45 PM EDT
Astronomical Twilight 5:12 AM EDT 9:17 PM EDT
Moon 11:58 AM EDT 1:19 AM EDT
Length of Visible Light 13h 59m
Length of Day
13h 07m
Waxing Crescent, 42% of the Moon is Illuminated
Apr 17
Waxing Crescent
Apr 18
First Quarter
Apr 25
Full
May 2
Last Quarter
May 9
New

Hourly Weather History & Observations

Time (EDT) Temp. Heat Index Dew Point Humidity Pressure Visibility Wind Dir Wind Speed Gust Speed Precip Events Conditions
12:15 AM 59.7 °F - 59.0 °F 97% 30.23 in 5.0 mi Calm Calm - N/A   Clear
12:35 AM 59.2 °F - 58.8 °F 99% 30.24 in 7.0 mi Calm Calm - N/A   Clear
12:55 AM 59.0 °F - 58.3 °F 97% 30.24 in 7.0 mi Calm Calm - N/A   Clear
1:15 AM 58.3 °F - 57.7 °F 98% 30.24 in 5.0 mi Calm Calm - N/A   Clear
1:35 AM 58.1 °F - 57.6 °F 98% 30.23 in 7.0 mi Calm Calm - N/A   Clear
1:55 AM 57.6 °F - 56.7 °F 97% 30.22 in 10.0 mi Calm Calm - N/A   Clear
2:15 AM 57.6 °F - 57.2 °F 99% 30.22 in 7.0 mi Calm Calm - N/A   Clear
2:35 AM 57.2 °F - 56.3 °F 97% 30.21 in 7.0 mi Calm Calm - N/A   Clear
2:55 AM 56.5 °F - 55.9 °F 98% 30.21 in 7.0 mi Calm Calm - N/A   Clear
3:15 AM 55.8 °F - 55.4 °F 99% 30.21 in 5.0 mi Calm Calm - N/A   Clear
3:35 AM 56.1 °F - 55.8 °F 99% 30.21 in 5.0 mi Calm Calm - N/A   Clear
3:55 AM 56.7 °F - 56.3 °F 99% 30.21 in 7.0 mi Calm Calm - N/A   Clear
4:15 AM 56.5 °F - 56.3 °F 99% 30.21 in 7.0 mi Calm Calm - N/A   Clear
4:35 AM 56.3 °F - 55.8 °F 98% 30.21 in 7.0 mi Calm Calm - N/A   Clear
4:55 AM 55.6 °F - 55.2 °F 99% 30.21 in 4.0 mi Calm Calm - N/A   Clear
5:15 AM 54.3 °F - 53.8 °F 98% 30.20 in 7.0 mi Calm Calm - N/A   Clear
5:35 AM 54.5 °F - 54.1 °F 99% 30.21 in 7.0 mi Calm Calm - N/A   Clear
5:55 AM 54.3 °F - 53.6 °F 97% 30.21 in 10.0 mi Calm Calm - N/A   Clear
6:15 AM 54.3 °F - 54.0 °F 99% 30.21 in 7.0 mi Calm Calm - N/A   Clear
6:35 AM 54.1 °F - 53.4 °F 97% 30.22 in 10.0 mi Calm Calm - N/A   Clear
6:55 AM 54.0 °F - 53.1 °F 97% 30.23 in 10.0 mi Calm Calm - N/A   Clear
7:15 AM 54.3 °F - 53.6 °F 97% 30.24 in 7.0 mi Calm Calm - N/A   Clear
7:35 AM 55.0 °F - 54.5 °F 98% 30.25 in 10.0 mi Calm Calm - N/A   Clear
7:55 AM 57.2 °F - 56.7 °F 98% 30.25 in 10.0 mi Calm Calm - N/A   Clear
8:15 AM 59.7 °F - 58.3 °F 95% 30.25 in 10.0 mi Calm Calm - N/A   Clear
8:35 AM 62.4 °F - 60.1 °F 92% 30.25 in 10.0 mi Calm Calm - N/A   Clear
8:55 AM 64.4 °F - 61.5 °F 90% 30.24 in 10.0 mi Calm Calm - N/A   Clear
9:15 AM 66.7 °F - 62.4 °F 86% 30.24 in 10.0 mi Calm Calm - N/A   Clear
9:35 AM 68.9 °F - 63.0 °F 81% 30.24 in 7.0 mi Calm Calm - N/A   Clear
10:15 AM 71.2 °F - 63.1 °F 75% 30.24 in 10.0 mi Calm Calm - N/A   Clear
10:35 AM 71.4 °F - 61.7 °F 71% 30.23 in 10.0 mi Calm Calm - N/A   Clear
10:55 AM 72.0 °F - 61.2 °F 69% 30.23 in 10.0 mi Calm Calm - N/A   Clear
11:15 AM 74.1 °F - 60.8 °F 63% 30.22 in 10.0 mi Calm Calm - N/A   Clear
11:35 AM 75.2 °F - 62.2 °F 64% 30.22 in 10.0 mi Calm Calm - N/A   Clear
11:55 AM 76.3 °F - 61.7 °F 60% 30.21 in 10.0 mi SSW 3.5 mph - N/A   Clear
12:15 PM 76.5 °F - 61.3 °F 59% 30.21 in 10.0 mi West 3.5 mph - N/A   Clear
12:35 PM 74.8 °F - 60.6 °F 61% 30.20 in 10.0 mi Calm Calm - N/A   Scattered Clouds
12:55 PM 75.6 °F - 61.0 °F 60% 30.20 in 10.0 mi Calm Calm - N/A   Scattered Clouds
1:15 PM 77.9 °F - 61.2 °F 56% 30.19 in 10.0 mi Calm Calm - N/A   Mostly Cloudy
1:35 PM 78.4 °F - 59.5 °F 52% 30.18 in 10.0 mi Calm Calm - N/A   Scattered Clouds
1:55 PM 78.8 °F - 60.1 °F 53% 30.18 in 10.0 mi Calm Calm - N/A   Scattered Clouds
2:15 PM 77.9 °F - 60.3 °F 54% 30.17 in 10.0 mi Calm Calm - N/A   Mostly Cloudy
2:35 PM 79.3 °F - 60.3 °F 52% 30.17 in 10.0 mi South 3.5 mph - N/A   Mostly Cloudy
2:55 PM 79.3 °F - 60.1 °F 52% 30.16 in 10.0 mi Calm Calm - N/A   Scattered Clouds
3:15 PM 80.4 °F 81.1 °F 59.7 °F 49% 30.16 in 10.0 mi ENE 4.6 mph - N/A   Mostly Cloudy
3:35 PM 80.1 °F 80.8 °F 59.2 °F 49% 30.15 in 10.0 mi Calm Calm - N/A   Scattered Clouds
3:55 PM 81.1 °F 81.3 °F 58.1 °F 45% 30.14 in 10.0 mi NE 3.5 mph - N/A   Mostly Cloudy
4:35 PM 81.9 °F 81.9 °F 58.8 °F 45% 30.13 in 10.0 mi East 9.2 mph - N/A   Scattered Clouds
4:55 PM 79.7 °F - 59.2 °F 49% 30.13 in 10.0 mi ESE 5.8 mph - N/A   Mostly Cloudy
5:15 PM 79.3 °F - 62.6 °F 56% 30.13 in 10.0 mi South 6.9 mph - N/A   Mostly Cloudy
5:35 PM 79.2 °F - 62.6 °F 57% 30.13 in 10.0 mi SSE 6.9 mph - N/A   Scattered Clouds
5:55 PM 78.3 °F - 61.9 °F 57% 30.14 in 10.0 mi SSE 11.5 mph - N/A   Clear
6:15 PM 77.0 °F - 61.0 °F 58% 30.14 in 10.0 mi SE 11.5 mph 16.1 mph N/A   Clear
6:35 PM 74.8 °F - 59.5 °F 59% 30.15 in 10.0 mi SSE 10.4 mph - N/A   Clear
6:55 PM 73.4 °F - 58.5 °F 59% 30.15 in 10.0 mi SSE 6.9 mph - N/A   Clear
7:15 PM 72.5 °F - 58.1 °F 60% 30.15 in 10.0 mi SSE 6.9 mph - N/A   Clear
7:35 PM 71.2 °F - 58.1 °F 63% 30.15 in 10.0 mi SSE 3.5 mph - N/A   Clear
7:55 PM 70.3 °F - 58.5 °F 66% 30.15 in 10.0 mi SSE 3.5 mph - N/A   Clear
8:15 PM 69.3 °F - 58.3 °F 68% 30.16 in 10.0 mi SSE 3.5 mph - N/A   Clear
8:35 PM 68.2 °F - 58.1 °F 70% 30.16 in 10.0 mi South 4.6 mph - N/A   Clear
8:55 PM 67.8 °F - 58.1 °F 71% 30.17 in 10.0 mi SE 4.6 mph - N/A   Clear
9:15 PM 67.1 °F - 59.2 °F 76% 30.18 in 10.0 mi Calm Calm - N/A   Clear
9:35 PM 66.4 °F - 59.7 °F 79% 30.19 in 10.0 mi Calm Calm - N/A   Clear
9:55 PM 65.3 °F - 59.9 °F 83% 30.19 in 10.0 mi Calm Calm - N/A   Clear
10:15 PM 64.6 °F - 59.9 °F 85% 30.19 in 10.0 mi Calm Calm - N/A   Clear
10:55 PM 62.1 °F - 59.4 °F 91% 30.19 in 10.0 mi Calm Calm - N/A   Clear
11:15 PM 61.5 °F - 59.0 °F 91% 30.18 in 10.0 mi Calm Calm - N/A   Clear
11:35 PM 61.2 °F - 59.0 °F 93% 30.19 in 10.0 mi Calm Calm - N/A   Clear
11:55 PM 60.1 °F - 59.0 °F 96% 30.18 in 10.0 mi Calm Calm - N/A   Clear